| time (UTC) | temp F | wind direction | speed MPH | gust MPH | rain 1hr in | rain 24hr in | rain mn in | humidity % | barometer mb |
| 20260831143507 | 79 | 219 | 2.0 | 6.0 | 0.00 | 0.00 | 0.00 | 77 | 1019.2 |
| 20260831143015 | 79 | 192 | 3.0 | 6.0 | 0.00 | 0.00 | 0.00 | 77 | 1019.1 |
| 20260831142504 | 79 | 202 | 3.0 | 6.0 | 0.00 | 0.00 | 0.00 | 77 | 1019.0 |
| 20260831142006 | 79 | 254 | 3.0 | 5.0 | 0.00 | 0.00 | 0.00 | 77 | 1019.1 |
| 20260831141517 | 79 | 193 | 2.0 | 7.0 | 0.00 | 0.00 | 0.00 | 77 | 1019.0 |
| 20260831141008 | 78 | 184 | 4.0 | 7.0 | 0.00 | 0.00 | 0.00 | 76 | 1018.9 |
| 20260831140514 | 78 | 194 | 3.0 | 6.0 | 0.00 | 0.00 | 0.00 | 76 | 1018.9 |
| 20260831140033 | 78 | 215 | 3.0 | 6.0 | 0.00 | 0.00 | 0.00 | 78 | 1018.9 |
| 20260831135513 | 78 | 101 | 2.0 | 4.0 | 0.00 | 0.00 | 0.00 | 76 | 1018.9 |
| 20260831135015 | 77 | 182 | 2.0 | 5.0 | 0.00 | 0.00 | 0.00 | 77 | 1018.9 |
| 20260831134528 | 77 | 214 | 2.0 | 5.0 | 0.00 | 0.00 | 0.00 | 76 | 1018.9 |
| 20260831134015 | 77 | 211 | 2.0 | 5.0 | 0.00 | 0.00 | 0.00 | 76 | 1018.9 |
| 20260831133513 | 77 | 227 | 3.0 | 5.0 | 0.00 | 0.00 | 0.00 | 76 | 1018.9 |
| 20260831133034 | 77 | 190 | 3.0 | 7.0 | 0.00 | 0.00 | 0.00 | 75 | 1019.0 |
| 20260831132505 | 77 | 241 | 3.0 | 7.0 | 0.00 | 0.00 | 0.00 | 75 | 1019.0 |
| 20260831132006 | 77 | 205 | 3.0 | 6.0 | 0.00 | 0.00 | 0.00 | 75 | 1019.0 |
| 20260831131514 | 77 | 233 | 3.0 | 5.0 | 0.00 | 0.00 | 0.00 | 76 | 1018.9 |
| 20260831131009 | 76 | 226 | 2.0 | 5.0 | 0.00 | 0.00 | 0.00 | 76 | 1018.8 |
| 20260831130510 | 76 | 212 | 3.0 | 6.0 | 0.00 | 0.00 | 0.00 | 76 | 1018.8 |
| 20260831130023 | 76 | 194 | 2.0 | 6.0 | 0.00 | 0.00 | 0.00 | 77 | 1018.7 |
| 20260831125512 | 75 | 211 | 2.0 | 4.0 | 0.00 | 0.00 | 0.00 | 80 | 1018.7 |
| 20260831125013 | 74 | 195 | 2.0 | 4.0 | 0.00 | 0.00 | 0.00 | 81 | 1018.7 |
| 20260831124527 | 73 | 204 | 2.0 | 3.0 | 0.00 | 0.00 | 0.00 | 81 | 1018.7 |
| 20260831124015 | 73 | 197 | 2.0 | 4.0 | 0.00 | 0.00 | 0.00 | 81 | 1018.8 |
| 20260831123515 | 73 | 210 | 2.0 | 4.0 | 0.00 | 0.00 | 0.00 | 81 | 1018.7 |
| 20260831123030 | 73 | 183 | 2.0 | 4.0 | 0.00 | 0.00 | 0.00 | 81 | 1018.7 |
| 20260831122521 | 73 | 207 | 2.0 | 3.0 | 0.00 | 0.00 | 0.00 | 81 | 1018.7 |
| 20260831122015 | 73 | 193 | 1.0 | 4.0 | 0.00 | 0.00 | 0.00 | 82 | 1018.7 |
| 20260831121512 | 72 | 165 | 2.0 | 5.0 | 0.00 | 0.00 | 0.00 | 82 | 1018.6 |
| 20260831121006 | 72 | 203 | 2.0 | 5.0 | 0.00 | 0.00 | 0.00 | 82 | 1018.6 |
| 20260831120508 | 72 | 171 | 1.0 | 5.0 | 0.00 | 0.00 | 0.00 | 83 | 1018.7 |
| 20260831120018 | 72 | 188 | 2.0 | 4.0 | 0.00 | 0.00 | 0.00 | 83 | 1018.6 |
| 20260831115509 | 71 | 178 | 1.0 | 4.0 | 0.00 | 0.00 | 0.00 | 83 | 1018.6 |
| 20260831115012 | 71 | 198 | 1.0 | 4.0 | 0.00 | 0.00 | 0.00 | 83 | 1018.5 |
| 20260831114531 | 71 | 191 | 1.0 | 4.0 | 0.00 | 0.00 | 0.00 | 83 | 1018.5 |
| 20260831114013 | 71 | 198 | 1.0 | 3.0 | 0.00 | 0.00 | 0.00 | 83 | 1018.5 |
| 20260831113518 | 71 | 202 | 1.0 | 5.0 | 0.00 | 0.00 | 0.00 | 83 | 1018.5 |
| 20260831113030 | 71 | 200 | 2.0 | 5.0 | 0.00 | 0.00 | 0.00 | 83 | 1018.5 |
| 20260831112517 | 71 | 200 | 1.0 | 5.0 | 0.00 | 0.00 | 0.00 | 83 | 1018.6 |
| 20260831112017 | 71 | 205 | 2.0 | 5.0 | 0.00 | 0.00 | 0.00 | 83 | 1018.6 |
| 20260831111533 | 71 | 194 | 1.0 | 3.0 | 0.00 | 0.00 | 0.00 | 83 | 1018.5 |
| 20260831111015 | 71 | 185 | 1.0 | 3.0 | 0.00 | 0.00 | 0.00 | 83 | 1018.4 |
| 20260831110510 | 71 | 208 | 2.0 | 3.0 | 0.00 | 0.00 | 0.00 | 83 | 1018.5 |
| 20260831110014 | 72 | 191 | 2.0 | 3.0 | 0.00 | 0.00 | 0.00 | 83 | 1018.5 |
| 20260831105510 | 72 | 200 | 1.0 | 2.0 | 0.00 | 0.00 | 0.00 | 83 | 1018.4 |
| 20260831105010 | 72 | 199 | 1.0 | 2.0 | 0.00 | 0.00 | 0.00 | 83 | 1018.4 |
| 20260831104526 | 72 | 207 | 1.0 | 3.0 | 0.00 | 0.00 | 0.00 | 83 | 1018.4 |
| 20260831104013 | 72 | 202 | 1.0 | 3.0 | 0.00 | 0.00 | 0.00 | 83 | 1018.4 |
| 20260831103513 | 72 | 209 | 1.0 | 3.0 | 0.00 | 0.00 | 0.00 | 83 | 1018.2 |
| 20260831103027 | 71 | 186 | 2.0 | 3.0 | 0.00 | 0.00 | 0.00 | 84 | 1018.2 |
| 20260831102513 | 71 | 202 | 0.0 | 2.0 | 0.00 | 0.00 | 0.00 | 84 | 1018.2 |
| 20260831102017 | 71 | 198 | 0.0 | 2.0 | 0.00 | 0.00 | 0.00 | 85 | 1018.2 |
| 20260831101532 | 71 | 198 | 0.0 | 2.0 | 0.00 | 0.00 | 0.00 | 85 | 1018.1 |
| 20260831101017 | 71 | 198 | 0.0 | 2.0 | 0.00 | 0.00 | 0.00 | 85 | 1018.1 |
| 20260831100517 | 71 | 198 | 1.0 | 3.0 | 0.00 | 0.00 | 0.00 | 85 | 1018.0 |
| 20260831100037 | 71 | 198 | 0.0 | 3.0 | 0.00 | 0.00 | 0.00 | 85 | 1018.0 |
| 20260831095504 | 71 | 184 | 0.0 | 2.0 | 0.00 | 0.00 | 0.00 | 85 | 1017.9 |
| 20260831095009 | 71 | 178 | 0.0 | 2.0 | 0.00 | 0.00 | 0.00 | 85 | 1017.8 |
| 20260831094518 | 71 | 215 | 0.0 | 2.0 | 0.00 | 0.00 | 0.00 | 85 | 1017.9 |
| 20260831094011 | 71 | 215 | 0.0 | 2.0 | 0.00 | 0.00 | 0.00 | 85 | 1017.9 |
| 20260831093510 | 71 | 215 | 0.0 | 2.0 | 0.00 | 0.00 | 0.00 | 85 | 1018.0 |
| 20260831093031 | 71 | 215 | 0.0 | 2.0 | 0.00 | 0.00 | 0.00 | 85 | 1018.1 |
| 20260831092516 | 71 | 215 | 0.0 | 2.0 | 0.00 | 0.00 | 0.00 | 85 | 1018.0 |
| 20260831092013 | 71 | 213 | 0.0 | 2.0 | 0.00 | 0.00 | 0.00 | 85 | 1018.0 |
| 20260831091533 | 71 | 211 | 1.0 | 2.0 | 0.00 | 0.00 | 0.00 | 85 | 1018.0 |
| 20260831091014 | 71 | 211 | 0.0 | 2.0 | 0.00 | 0.00 | 0.00 | 85 | 1018.0 |
| 20260831090518 | 71 | 211 | 1.0 | 2.0 | 0.00 | 0.00 | 0.00 | 85 | 1018.1 |
| 20260831090034 | 71 | 192 | 1.0 | 2.0 | 0.00 | 0.00 | 0.00 | 85 | 1018.1 |
| 20260831085519 | 71 | 157 | 0.0 | 2.0 | 0.00 | 0.00 | 0.00 | 84 | 1018.1 |
| 20260831085015 | 72 | 157 | 0.0 | 2.0 | 0.00 | 0.00 | 0.00 | 85 | 1018.1 |
| 20260831084524 | 72 | 157 | 0.0 | 2.0 | 0.00 | 0.00 | 0.00 | 84 | 1018.1 |
| 20260831084009 | 72 | 137 | 0.0 | 2.0 | 0.00 | 0.00 | 0.00 | 84 | 1018.1 |
| 20260831083512 | 72 | 137 | 0.0 | 2.0 | 0.00 | 0.00 | 0.00 | 84 | 1018.1 |
| 20260831083003 | 71 | 137 | 1.0 | 2.0 | 0.00 | 0.00 | 0.00 | 85 | 1018.1 |
| 20260831082503 | 71 | 137 | 0.0 | 1.0 | 0.00 | 0.00 | 0.00 | 85 | 1018.1 |
| 20260831082003 | 71 | 137 | 0.0 | 2.0 | 0.00 | 0.00 | 0.00 | 86 | 1018.2 |
| 20260831081504 | 71 | 137 | 0.0 | 2.0 | 0.00 | 0.00 | 0.00 | 86 | 1018.1 |
| 20260831081004 | 71 | 137 | 0.0 | 0.0 | 0.00 | 0.00 | 0.00 | 86 | 1018.1 |
| 20260831080503 | 71 | 137 | 0.0 | 0.0 | 0.00 | 0.00 | 0.00 | 85 | 1018.1 |
| 20260831080007 | 72 | 137 | 0.0 | 0.0 | 0.00 | 0.00 | 0.00 | 85 | 1018.0 |
| 20260831075505 | 72 | 137 | 0.0 | 0.0 | 0.00 | 0.00 | 0.00 | 85 | 1017.9 |
| 20260831075005 | 72 | 137 | 0.0 | 2.0 | 0.00 | 0.00 | 0.00 | 84 | 1018.0 |
| 20260831074515 | 72 | 137 | 0.0 | 2.0 | 0.00 | 0.00 | 0.00 | 84 | 1018.0 |
| 20260831074009 | 72 | 137 | 0.0 | 2.0 | 0.00 | 0.00 | 0.00 | 83 | 1018.0 |
| 20260831073508 | 72 | 137 | 0.0 | 2.0 | 0.00 | 0.00 | 0.00 | 83 | 1018.1 |
| 20260831073023 | 72 | 137 | 1.0 | 2.0 | 0.00 | 0.00 | 0.00 | 82 | 1018.1 |
| 20260831072511 | 72 | 137 | 1.0 | 2.0 | 0.00 | 0.00 | 0.00 | 82 | 1018.0 |
| 20260831072004 | 72 | 137 | 1.0 | 3.0 | 0.00 | 0.00 | 0.00 | 82 | 1018.0 |
| 20260831071505 | 72 | 137 | 2.0 | 3.0 | 0.00 | 0.00 | 0.00 | 83 | 1018.0 |
| 20260831071002 | 72 | 139 | 2.0 | 3.0 | 0.00 | 0.00 | 0.00 | 83 | 1018.0 |
| 20260831070503 | 72 | 136 | 1.0 | 3.0 | 0.00 | 0.00 | 0.00 | 83 | 1018.0 |
| 20260831070008 | 72 | 142 | 2.0 | 3.0 | 0.00 | 0.00 | 0.00 | 83 | 1017.9 |
| 20260831065505 | 72 | 139 | 2.0 | 3.0 | 0.00 | 0.00 | 0.00 | 83 | 1018.0 |
| 20260831065004 | 72 | 139 | 1.0 | 3.0 | 0.00 | 0.00 | 0.00 | 83 | 1018.1 |
| 20260831064513 | 72 | 139 | 2.0 | 3.0 | 0.00 | 0.00 | 0.00 | 82 | 1018.1 |
| 20260831064007 | 72 | 139 | 1.0 | 3.0 | 0.00 | 0.00 | 0.00 | 82 | 1018.3 |
| 20260831063508 | 73 | 139 | 1.0 | 4.0 | 0.00 | 0.00 | 0.00 | 81 | 1018.3 |
| 20260831063018 | 73 | 137 | 2.0 | 4.0 | 0.00 | 0.00 | 0.00 | 81 | 1018.3 |
| 20260831062512 | 73 | 138 | 2.0 | 3.0 | 0.00 | 0.00 | 0.00 | 81 | 1018.4 |
| 20260831062011 | 73 | 139 | 2.0 | 3.0 | 0.00 | 0.00 | 0.00 | 81 | 1018.5 |
| 20260831061523 | 73 | 147 | 2.0 | 3.0 | 0.00 | 0.00 | 0.00 | 81 | 1018.5 |
| 20260831061004 | 73 | 141 | 2.0 | 3.0 | 0.00 | 0.00 | 0.00 | 81 | 1018.5 |
| 20260831060503 | 73 | 135 | 1.0 | 3.0 | 0.00 | 0.00 | 0.00 | 81 | 1018.5 |
| 20260831060005 | 73 | 140 | 1.0 | 2.0 | 0.00 | 0.00 | 0.00 | 80 | 1018.4 |
| 20260831055505 | 73 | 145 | 1.0 | 2.0 | 0.00 | 0.00 | 0.00 | 81 | 1018.5 |
| 20260831055003 | 73 | 145 | 1.0 | 2.0 | 0.00 | 0.00 | 0.00 | 81 | 1018.5 |
| 20260831054511 | 73 | 157 | 1.0 | 3.0 | 0.00 | 0.00 | 0.00 | 80 | 1018.5 |
| 20260831054004 | 73 | 157 | 1.0 | 3.0 | 0.00 | 0.00 | 0.00 | 81 | 1018.4 |
| 20260831053508 | 73 | 140 | 2.0 | 4.0 | 0.00 | 0.00 | 0.00 | 81 | 1018.5 |
| 20260831053014 | 73 | 134 | 2.0 | 4.0 | 0.00 | 0.00 | 0.00 | 81 | 1018.5 |
| 20260831052508 | 73 | 134 | 3.0 | 3.0 | 0.00 | 0.00 | 0.00 | 81 | 1018.5 |
| 20260831052011 | 73 | 140 | 2.0 | 3.0 | 0.00 | 0.00 | 0.00 | 81 | 1018.5 |
| 20260831051535 | 73 | 139 | 2.0 | 4.0 | 0.00 | 0.00 | 0.00 | 81 | 1018.5 |
| 20260831051013 | 73 | 136 | 3.0 | 4.0 | 0.00 | 0.00 | 0.00 | 81 | 1018.4 |
| 20260831050514 | 73 | 140 | 3.0 | 4.0 | 0.00 | 0.00 | 0.00 | 81 | 1018.4 |
| 20260831050005 | 73 | 139 | 2.0 | 3.0 | 0.00 | 0.00 | 0.00 | 82 | 1018.4 |
| 20260831045507 | 73 | 139 | 2.0 | 2.0 | 0.00 | 0.00 | 0.00 | 81 | 1018.5 |
| 20260831045003 | 73 | 144 | 1.0 | 2.0 | 0.00 | 0.00 | 0.00 | 82 | 1018.5 |
| 20260831044506 | 73 | 137 | 1.0 | 3.0 | 0.00 | 0.00 | 0.00 | 81 | 1018.5 |
| 20260831044005 | 73 | 137 | 2.0 | 3.0 | 0.00 | 0.00 | 0.00 | 82 | 1018.5 |
| 20260831043502 | 73 | 140 | 2.0 | 3.0 | 0.00 | 0.00 | 0.00 | 82 | 1018.3 |
| 20260831043016 | 73 | 137 | 2.0 | 3.0 | 0.00 | 0.00 | 0.00 | 82 | 1018.3 |
| 20260831042511 | 73 | 140 | 2.0 | 3.0 | 0.00 | 0.00 | 0.00 | 82 | 1018.3 |
| 20260831042011 | 73 | 153 | 1.0 | 3.0 | 0.00 | 0.00 | 0.00 | 82 | 1018.2 |
| 20260831041523 | 73 | 179 | 0.0 | 2.0 | 0.00 | 0.00 | 0.00 | 83 | 1018.2 |
| 20260831041013 | 73 | 179 | 1.0 | 1.0 | 0.00 | 0.00 | 0.00 | 83 | 1018.1 |
| 20260831040514 | 73 | 189 | 0.0 | 2.0 | 0.00 | 0.00 | 0.00 | 83 | 1018.2 |
| 20260831040028 | 73 | 189 | 0.0 | 2.0 | 0.00 | 0.00 | 0.00 | 82 | 1018.1 |
| 20260831035516 | 73 | 189 | 0.0 | 3.0 | 0.00 | 0.00 | 0.00 | 82 | 1018.1 |
| 20260831035005 | 73 | 147 | 2.0 | 4.0 | 0.00 | 0.00 | 0.00 | 82 | 1018.0 |
| 20260831034507 | 73 | 200 | 1.0 | 4.0 | 0.00 | 0.00 | 0.00 | 83 | 1018.2 |
| 20260831034005 | 73 | 190 | 1.0 | 3.0 | 0.00 | 0.00 | 0.00 | 83 | 1018.1 |
| 20260831033505 | 73 | 176 | 1.0 | 2.0 | 0.00 | 0.00 | 0.00 | 83 | 1018.1 |
| 20260831033017 | 73 | 171 | 1.0 | 4.0 | 0.00 | 0.00 | 0.00 | 83 | 1018.2 |
| 20260831032507 | 73 | 188 | 1.0 | 4.0 | 0.00 | 0.00 | 0.00 | 83 | 1018.2 |
| 20260831032007 | 74 | 190 | 2.0 | 4.0 | 0.00 | 0.00 | 0.00 | 82 | 1018.3 |
| 20260831031516 | 74 | 165 | 1.0 | 2.0 | 0.00 | 0.00 | 0.00 | 80 | 1018.3 |
| 20260831031013 | 74 | 155 | 1.0 | 3.0 | 0.00 | 0.00 | 0.00 | 80 | 1018.3 |
| 20260831030514 | 74 | 158 | 0.0 | 3.0 | 0.00 | 0.00 | 0.00 | 80 | 1018.4 |
| 20260831030026 | 74 | 167 | 0.0 | 4.0 | 0.00 | 0.00 | 0.00 | 80 | 1018.4 |
| 20260831025511 | 74 | 148 | 2.0 | 4.0 | 0.00 | 0.00 | 0.00 | 81 | 1018.4 |
| 20260831025015 | 74 | 140 | 2.0 | 6.0 | 0.00 | 0.00 | 0.00 | 81 | 1018.5 |
| 20260831024530 | 74 | 150 | 3.0 | 5.0 | 0.00 | 0.00 | 0.00 | 82 | 1018.4 |
| 20260831024003 | 74 | 134 | 2.0 | 3.0 | 0.00 | 0.00 | 0.00 | 82 | 1018.4 |
| 20260831023505 | 73 | 146 | 2.0 | 3.0 | 0.00 | 0.00 | 0.00 | 83 | 1018.4 |
| 20260831023011 | 73 | 142 | 2.0 | 3.0 | 0.00 | 0.00 | 0.00 | 84 | 1018.4 |
| 20260831022506 | 73 | 141 | 1.0 | 2.0 | 0.00 | 0.00 | 0.00 | 84 | 1018.5 |
| 20260831022007 | 73 | 144 | 0.0 | 1.0 | 0.00 | 0.00 | 0.00 | 85 | 1018.5 |
| 20260831021514 | 73 | 144 | 0.0 | 1.0 | 0.00 | 0.00 | 0.00 | 85 | 1018.6 |
| 20260831021014 | 73 | 144 | 1.0 | 1.0 | 0.00 | 0.00 | 0.00 | 85 | 1018.6 |
| 20260831020510 | 73 | 144 | 1.0 | 2.0 | 0.00 | 0.00 | 0.00 | 85 | 1018.5 |
| 20260831020020 | 73 | 144 | 1.0 | 2.0 | 0.00 | 0.00 | 0.00 | 85 | 1018.6 |
| 20260831015513 | 73 | 144 | 1.0 | 2.0 | 0.00 | 0.00 | 0.00 | 85 | 1018.6 |
| 20260831015014 | 73 | 144 | 1.0 | 2.0 | 0.00 | 0.00 | 0.00 | 85 | 1018.5 |
| 20260831014526 | 73 | 140 | 1.0 | 3.0 | 0.00 | 0.00 | 0.00 | 86 | 1018.4 |
| 20260831014015 | 73 | 139 | 2.0 | 4.0 | 0.00 | 0.00 | 0.00 | 86 | 1018.4 |
| 20260831013517 | 73 | 142 | 2.0 | 4.0 | 0.00 | 0.00 | 0.00 | 86 | 1018.3 |
| 20260831013008 | 73 | 138 | 3.0 | 3.0 | 0.00 | 0.00 | 0.00 | 85 | 1018.3 |
| 20260831012503 | 73 | 142 | 1.0 | 2.0 | 0.00 | 0.00 | 0.00 | 85 | 1018.3 |
| 20260831012002 | 73 | 142 | 1.0 | 2.0 | 0.00 | 0.00 | 0.00 | 86 | 1018.3 |
| 20260831011512 | 74 | 142 | 0.0 | 2.0 | 0.00 | 0.00 | 0.00 | 85 | 1018.3 |
| 20260831011007 | 74 | 142 | 0.0 | 2.0 | 0.00 | 0.00 | 0.00 | 85 | 1018.2 |
| 20260831010508 | 74 | 142 | 0.0 | 1.0 | 0.00 | 0.00 | 0.00 | 85 | 1018.1 |
| 20260831010017 | 74 | 142 | 1.0 | 1.0 | 0.00 | 0.00 | 0.00 | 85 | 1018.0 |
| 20260831005512 | 74 | 142 | 1.0 | 1.0 | 0.00 | 0.00 | 0.00 | 85 | 1018.1 |
| 20260831005012 | 74 | 142 | 1.0 | 1.0 | 0.00 | 0.00 | 0.00 | 85 | 1018.1 |
| 20260831004529 | 74 | 142 | 1.0 | 2.0 | 0.00 | 0.00 | 0.00 | 86 | 1018.1 |
| 20260831004014 | 74 | 142 | 1.0 | 2.0 | 0.00 | 0.00 | 0.00 | 86 | 1018.0 |
| 20260831003514 | 74 | 146 | 2.0 | 2.0 | 0.00 | 0.00 | 0.00 | 86 | 1018.1 |
| 20260831003036 | 74 | 163 | 1.0 | 2.0 | 0.00 | 0.00 | 0.00 | 1018.0 | |
| 20260831002514 | 75 | 163 | 1.0 | 3.0 | 0.00 | 0.00 | 0.00 | 84 | 1018.0 |
| 20260831002003 | 75 | 167 | 1.0 | 3.0 | 0.00 | 0.00 | 0.00 | 84 | 1017.9 |
| 20260831001514 | 76 | 167 | 0.0 | 1.0 | 0.00 | 0.00 | 0.00 | 84 | 1018.0 |
| 20260831001010 | 76 | 167 | 1.0 | 1.0 | 0.00 | 0.00 | 0.00 | 82 | 1018.1 |
| 20260831000507 | 77 | 167 | 1.0 | 3.0 | 0.00 | 0.00 | 0.00 | 80 | 1018.2 |
| 20260831000019 | 77 | 167 | 1.0 | 3.0 | 0.00 | 0.00 | 0.00 | 80 | 1018.2 |
| 20260830235510 | 78 | 259 | 0.0 | 2.0 | 0.00 | 0.00 | 0.00 | 79 | 1018.3 |
| 20260830235013 | 78 | 284 | 0.0 | 0.0 | 0.00 | 0.00 | 0.00 | 76 | 1018.4 |
| 20260830234535 | 79 | 284 | 0.0 | 0.0 | 0.00 | 0.00 | 0.00 | 76 | 1018.5 |
| 20260830234013 | 79 | 284 | 0.0 | 0.0 | 0.00 | 0.00 | 0.00 | 76 | 1018.4 |
| 20260830233515 | 80 | 284 | 0.0 | 0.0 | 0.00 | 0.00 | 0.00 | 77 | 1018.4 |
| 20260830233028 | 80 | 284 | 0.0 | 0.0 | 0.00 | 0.00 | 0.00 | 74 | 1018.4 |
| 20260830232516 | 80 | 284 | 0.0 | 1.0 | 0.00 | 0.00 | 0.00 | 72 | 1018.4 |
| 20260830232015 | 81 | 284 | 0.0 | 1.0 | 0.00 | 0.00 | 0.00 | 70 | 1018.4 |
| 20260830231532 | 81 | 284 | 0.0 | 2.0 | 0.00 | 0.00 | 0.00 | 69 | 1018.4 |
| 20260830231017 | 81 | 284 | 0.0 | 2.0 | 0.00 | 0.00 | 0.00 | 69 | 1018.5 |
| 20260830230507 | 81 | 284 | 0.0 | 2.0 | 0.00 | 0.00 | 0.00 | 70 | 1018.5 |
| 20260830230015 | 82 | 284 | 0.0 | 2.0 | 0.00 | 0.00 | 0.00 | 68 | 1018.5 |
| 20260830225508 | 82 | 200 | 0.0 | 2.0 | 0.00 | 0.00 | 0.00 | 68 | 1018.5 |
| 20260830225009 | 82 | 311 | 0.0 | 2.0 | 0.00 | 0.00 | 0.00 | 68 | 1018.5 |
| 20260830224519 | 82 | 323 | 1.0 | 2.0 | 0.00 | 0.00 | 0.00 | 66 | 1018.5 |
| 20260830224011 | 83 | 242 | 0.0 | 2.0 | 0.00 | 0.00 | 0.00 | 67 | 1018.4 |
| 20260830223516 | 83 | 235 | 0.0 | 2.0 | 0.00 | 0.00 | 0.00 | 66 | 1018.4 |
| 20260830223026 | 83 | 249 | 1.0 | 2.0 | 0.00 | 0.00 | 0.00 | 65 | 1018.4 |
| 20260830222515 | 83 | 219 | 1.0 | 3.0 | 0.00 | 0.00 | 0.00 | 67 | 1018.3 |
| 20260830222015 | 82 | 197 | 1.0 | 3.0 | 0.00 | 0.00 | 0.00 | 68 | 1018.4 |
| 20260830221538 | 82 | 218 | 1.0 | 3.0 | 0.00 | 0.00 | 0.00 | 66 | 1018.1 |
| 20260830221016 | 82 | 188 | 1.0 | 3.0 | 0.00 | 0.00 | 0.00 | 66 | 1018.1 |
| 20260830220517 | 82 | 200 | 0.0 | 5.0 | 0.00 | 0.00 | 0.00 | 67 | 1018.2 |
| 20260830220033 | 82 | 208 | 2.0 | 5.0 | 0.00 | 0.00 | 0.00 | 65 | 1018.0 |
| 20260830215507 | 82 | 200 | 2.0 | 5.0 | 0.00 | 0.00 | 0.00 | 65 | 1018.1 |
| 20260830215008 | 82 | 200 | 3.0 | 6.0 | 0.00 | 0.00 | 0.00 | 64 | 1018.1 |
| 20260830214518 | 83 | 221 | 1.0 | 6.0 | 0.00 | 0.00 | 0.00 | 65 | 1018.0 |
| 20260830214011 | 83 | 200 | 2.0 | 6.0 | 0.00 | 0.00 | 0.00 | 63 | 1017.9 |
| 20260830213511 | 83 | 157 | 3.0 | 8.0 | 0.00 | 0.00 | 0.00 | 65 | 1017.9 |
| 20260830213032 | 83 | 243 | 4.0 | 8.0 | 0.00 | 0.00 | 0.00 | 63 | 1017.8 |
| 20260830212512 | 83 | 221 | 3.0 | 7.0 | 0.00 | 0.00 | 0.00 | 64 | 1017.9 |
| 20260830212012 | 83 | 179 | 2.0 | 7.0 | 0.00 | 0.00 | 0.00 | 66 | 1017.9 |
| 20260830211532 | 83 | 242 | 3.0 | 7.0 | 0.00 | 0.00 | 0.00 | 64 | 1017.9 |
| 20260830211020 | 83 | 202 | 3.0 | 7.0 | 0.00 | 0.00 | 0.00 | 64 | 1017.8 |
| 20260830210516 | 83 | 240 | 2.0 | 6.0 | 0.00 | 0.00 | 0.00 | 65 | 1017.7 |
| 20260830210035 | 83 | 232 | 3.0 | 7.0 | 0.00 | 0.00 | 0.00 | 64 | 1017.8 |
| 20260830205516 | 83 | 242 | 4.0 | 7.0 | 0.00 | 0.00 | 0.00 | 62 | 1018.0 |
| 20260830205017 | 82 | 215 | 2.0 | 10.0 | 0.00 | 0.00 | 0.00 | 64 | 1018.0 |
| 20260830204516 | 83 | 209 | 4.0 | 10.0 | 0.00 | 0.00 | 0.00 | 62 | 1018.1 |
| 20260830204009 | 83 | 237 | 6.0 | 12.0 | 0.00 | 0.00 | 0.00 | 62 | 1018.2 |
| 20260830203510 | 83 | 248 | 5.0 | 12.0 | 0.00 | 0.00 | 0.00 | 61 | 1018.1 |
| 20260830203025 | 83 | 205 | 4.0 | 9.0 | 0.00 | 0.00 | 0.00 | 64 | 1018.0 |
| 20260830202513 | 83 | 204 | 5.0 | 9.0 | 0.00 | 0.00 | 0.00 | 61 | 1018.0 |
| 20260830202012 | 83 | 137 | 3.0 | 11.0 | 0.00 | 0.00 | 0.00 | 61 | 1018.1 |
| 20260830201527 | 83 | 168 | 4.0 | 11.0 | 0.00 | 0.00 | 0.00 | 63 | 1018.0 |
| 20260830201013 | 83 | 184 | 4.0 | 12.0 | 0.00 | 0.00 | 0.00 | 63 | 1018.1 |
| 20260830200505 | 83 | 161 | 7.0 | 12.0 | 0.00 | 0.00 | 0.00 | 62 | 1017.9 |
| 20260830200009 | 83 | 238 | 5.0 | 8.0 | 0.00 | 0.00 | 0.00 | 68 | 1018.0 |
| 20260830195506 | 82 | 193 | 4.0 | 9.0 | 0.00 | 0.00 | 0.00 | 67 | 1018.2 |
| 20260830195005 | 82 | 208 | 3.0 | 10.0 | 0.00 | 0.00 | 0.00 | 70 | 1018.2 |
| 20260830194514 | 81 | 128 | 5.0 | 10.0 | 0.00 | 0.00 | 0.00 | 69 | 1018.2 |
| 20260830194007 | 81 | 184 | 3.0 | 11.0 | 0.00 | 0.00 | 0.00 | 70 | 1018.3 |
| 20260830193509 | 80 | 155 | 3.0 | 11.0 | 0.00 | 0.00 | 0.00 | 73 | 1018.1 |
| 20260830193018 | 80 | 209 | 3.0 | 10.0 | 0.00 | 0.00 | 0.00 | 76 | 1018.3 |
| 20260830192511 | 78 | 163 | 4.0 | 10.0 | 0.00 | 0.00 | 0.00 | 78 | 1018.2 |
| 20260830192012 | 77 | 133 | 4.0 | 9.0 | 0.00 | 0.00 | 0.00 | 80 | 1017.9 |
| 20260830191531 | 77 | 150 | 3.0 | 8.0 | 0.00 | 0.00 | 0.00 | 80 | 1017.9 |
| 20260830191013 | 76 | 142 | 4.0 | 7.0 | 0.00 | 0.00 | 0.00 | 80 | 1018.2 |
| 20260830190513 | 76 | 142 | 2.0 | 4.0 | 0.00 | 0.00 | 0.00 | 82 | 1018.6 |
| 20260830190035 | 76 | 142 | 2.0 | 3.0 | 0.00 | 0.00 | 0.00 | 81 | 1018.8 |
| 20260830185505 | 75 | 142 | 2.0 | 3.0 | 0.00 | 0.00 | 0.00 | 81 | 1019.0 |
| 20260830185004 | 75 | 143 | 1.0 | 5.0 | 0.00 | 0.00 | 0.00 | 83 | 1019.1 |
| 20260830184509 | 75 | 127 | 2.0 | 5.0 | 0.00 | 0.00 | 0.00 | 82 | 1019.1 |
| 20260830184003 | 75 | 132 | 2.0 | 5.0 | 0.00 | 0.00 | 0.00 | 81 | 1019.1 |
| 20260830183506 | 74 | 135 | 2.0 | 6.0 | 0.00 | 0.00 | 0.00 | 83 | 1019.1 |
| 20260830183015 | 74 | 145 | 3.0 | 6.0 | 0.00 | 0.00 | 0.00 | 83 | 1019.1 |
| 20260830182511 | 75 | 125 | 3.0 | 6.0 | 0.00 | 0.00 | 0.00 | 81 | 1019.3 |
| 20260830182012 | 75 | 123 | 4.0 | 6.0 | 0.00 | 0.00 | 0.00 | 79 | 1019.5 |
| 20260830181524 | 76 | 153 | 2.0 | 3.0 | 0.00 | 0.00 | 0.00 | 78 | 1019.8 |
| 20260830181018 | 76 | 142 | 2.0 | 3.0 | 0.00 | 0.00 | 0.00 | 77 | 1020.1 |
| 20260830180516 | 76 | 146 | 2.0 | 3.0 | 0.00 | 0.00 | 0.00 | 77 | 1020.3 |
| 20260830180031 | 77 | 150 | 1.0 | 4.0 | 0.00 | 0.00 | 0.00 | 76 | 1020.5 |
| 20260830175514 | 77 | 148 | 1.0 | 4.0 | 0.00 | 0.00 | 0.00 | 76 | 1020.6 |
| 20260830175014 | 77 | 154 | 1.0 | 3.0 | 0.00 | 0.00 | 0.00 | 75 | 1020.8 |
| 20260830174509 | 77 | 160 | 1.0 | 3.0 | 0.00 | 0.00 | 0.00 | 74 | 1020.7 |
| 20260830174003 | 77 | 215 | 2.0 | 3.0 | 0.00 | 0.00 | 0.00 | 75 | 1020.9 |
| 20260830173507 | 77 | 142 | 1.0 | 3.0 | 0.00 | 0.00 | 0.00 | 72 | 1020.9 |
| 20260830173015 | 77 | 148 | 1.0 | 3.0 | 0.00 | 0.00 | 0.00 | 73 | 1021.0 |
| 20260830172509 | 77 | 136 | 2.0 | 2.0 | 0.00 | 0.00 | 0.00 | 72 | 1021.2 |
| 20260830172012 | 77 | 136 | 1.0 | 2.0 | 0.00 | 0.00 | 0.00 | 73 | 1021.3 |
| 20260830171523 | 77 | 70 | 1.0 | 2.0 | 0.00 | 0.00 | 0.00 | 71 | 1021.5 |
| 20260830171012 | 77 | 70 | 0.0 | 2.0 | 0.00 | 0.00 | 0.00 | 73 | 1021.6 |
| 20260830170513 | 77 | 70 | 0.0 | 2.0 | 0.00 | 0.00 | 0.00 | 72 | 1021.6 |
| 20260830170040 | 78 | 70 | 1.0 | 2.0 | 0.00 | 0.00 | 0.00 | 72 | 1021.5 |
| 20260830165512 | 78 | 311 | 0.0 | 2.0 | 0.00 | 0.00 | 0.00 | 73 | 1021.6 |
| 20260830165018 | 78 | 311 | 0.0 | 2.0 | 0.00 | 0.00 | 0.00 | 73 | 1021.6 |
| 20260830164530 | 78 | 311 | 0.0 | 1.0 | 0.00 | 0.00 | 0.00 | 74 | 1021.6 |
| 20260830164020 | 78 | 311 | 0.0 | 1.0 | 0.00 | 0.00 | 0.00 | 73 | 1021.6 |
| 20260830163503 | 77 | 311 | 0.0 | 2.0 | 0.00 | 0.00 | 0.00 | 71 | 1021.6 |
| 20260830163014 | 77 | 302 | 1.0 | 2.0 | 0.00 | 0.00 | 0.00 | 71 | 1021.7 |
| 20260830162509 | 77 | 275 | 0.0 | 2.0 | 0.00 | 0.00 | 0.00 | 72 | 1021.6 |
| 20260830162007 | 77 | 237 | 0.0 | 2.0 | 0.00 | 0.00 | 0.00 | 74 | 1021.7 |
| 20260830161519 | 77 | 237 | 0.0 | 2.0 | 0.00 | 0.00 | 0.00 | 73 | 1021.7 |
| 20260830161010 | 77 | 296 | 0.0 | 2.0 | 0.00 | 0.00 | 0.00 | 72 | 1021.6 |
| 20260830160512 | 77 | 313 | 0.0 | 2.0 | 0.00 | 0.00 | 0.00 | 75 | 1021.6 |
| 20260830160029 | 77 | 313 | 0.0 | 2.0 | 0.00 | 0.00 | 0.00 | 74 | 1021.6 |
| 20260830155515 | 76 | 313 | 1.0 | 2.0 | 0.00 | 0.00 | 0.00 | 73 | 1021.6 |
| 20260830155016 | 77 | 329 | 0.0 | 2.0 | 0.00 | 0.00 | 0.00 | 73 | 1021.6 |
| 20260830154528 | 76 | 329 | 0.0 | 3.0 | 0.00 | 0.00 | 0.00 | 75 | 1021.7 |
| 20260830154016 | 77 | 280 | 1.0 | 3.0 | 0.00 | 0.00 | 0.00 | 74 | 1021.6 |
| 20260830153516 | 76 | 329 | 1.0 | 2.0 | 0.00 | 0.00 | 0.00 | 74 | 1021.6 |
| 20260830153032 | 76 | 323 | 0.0 | 2.0 | 0.00 | 0.00 | 0.00 | 75 | 1021.6 |
| 20260830152508 | 76 | 323 | 0.0 | 2.0 | 0.00 | 0.00 | 0.00 | 73 | 1021.5 |
| 20260830152007 | 76 | 317 | 1.0 | 2.0 | 0.00 | 0.00 | 0.00 | 73 | 1021.4 |
| 20260830151518 | 76 | 319 | 1.0 | 2.0 | 0.00 | 0.00 | 0.00 | 74 | 1021.3 |
| 20260830151011 | 76 | 296 | 1.0 | 3.0 | 0.00 | 0.00 | 0.00 | 73 | 1021.1 |
| 20260830150511 | 76 | 315 | 1.0 | 4.0 | 0.00 | 0.00 | 0.00 | 73 | 1021.0 |
| 20260830150023 | 77 | 232 | 1.0 | 4.0 | 0.00 | 0.00 | 0.00 | 73 | 1020.9 |
| 20260830145513 | 76 | 346 | 1.0 | 4.0 | 0.00 | 0.00 | 0.00 | 74 | 1020.7 |
| 20260830145015 | 76 | 260 | 2.0 | 4.0 | 0.00 | 0.00 | 0.00 | 74 | 1020.5 |
| 20260830144541 | 76 | 229 | 2.0 | 4.0 | 0.00 | 0.00 | 0.00 | 74 | 1020.4 |
| 20260830144014 | 76 | 195 | 1.0 | 4.0 | 0.00 | 0.00 | 0.00 | 75 | 1020.1 |